"FILENAME","TIMESTAMP","SAMPLE","STATION","LATITUDE","LONGITUDE","SAMPLE_DATE","SAMPLE_TIME","DEPTH","DEPTH_UNITS","TOTALQ","TOTALV","TOTALU","FECALQ","FECALV","FECALU","ENTEROQ","ENTEROV","ENTEROU",
"201811COLISBOO.csv","2019JAN04135240","1811058907","I19",  32.53633,-117.12900,"20181105",1058,2,"m","<",2,"CFU/100 mL","<",2,"CFU/100 mL","<",2,"CFU/100 mL",
"201811COLISBOO.csv","2019JAN04135240","1811058908","I19",  32.53633,-117.12900,"20181105",1058,6,"m","e",2,"CFU/100 mL","<",2,"CFU/100 mL","<",2,"CFU/100 mL",
"201811COLISBOO.csv","2019JAN04135240","1811058909","I19",  32.53633,-117.12900,"20181105",1058,11,"m","e",12,"CFU/100 mL","e",2,"CFU/100 mL","e",2,"CFU/100 mL",
"201811COLISBOO.csv","2019JAN04135240","1811058910","I24",  32.55667,-117.14500,"20181105",1119,2,"m","<",2,"CFU/100 mL","<",2,"CFU/100 mL","<",2,"CFU/100 mL",
"201811COLISBOO.csv","2019JAN04135240","1811058911","I24",  32.55667,-117.14500,"20181105",1119,6,"m","<",2,"CFU/100 mL","<",2,"CFU/100 mL","<",2,"CFU/100 mL",
"201811COLISBOO.csv","2019JAN04135240","1811058912","I24",  32.55667,-117.14500,"20181105",1119,11,"m","<",2,"CFU/100 mL","<",2,"CFU/100 mL","<",2,"CFU/100 mL",
"201811COLISBOO.csv","2019JAN04135240","1811058913","I25",  32.56117,-117.14800,"20181105",1127,2,"m","<",2,"CFU/100 mL","<",2,"CFU/100 mL","<",2,"CFU/100 mL",
"201811COLISBOO.csv","2019JAN04135240","1811058914","I25",  32.56117,-117.14800,"20181105",1127,6,"m","<",2,"CFU/100 mL","<",2,"CFU/100 mL","<",2,"CFU/100 mL",
"201811COLISBOO.csv","2019JAN04135240","1811058915","I25",  32.56117,-117.14800,"20181105",1127,9,"m","<",2,"CFU/100 mL","<",2,"CFU/100 mL","<",2,"CFU/100 mL",
"201811COLISBOO.csv","2019JAN04135240","1811058916","I26",  32.57450,-117.14700,"20181105",1139,2,"m","<",2,"CFU/100 mL","<",2,"CFU/100 mL","<",2,"CFU/100 mL",
"201811COLISBOO.csv","2019JAN04135240","1811058917","I26",  32.57450,-117.14700,"20181105",1139,6,"m","<",2,"CFU/100 mL","e",2,"CFU/100 mL","<",2,"CFU/100 mL",
"201811COLISBOO.csv","2019JAN04135240","1811058918","I26",  32.57450,-117.14700,"20181105",1139,9,"m","<",2,"CFU/100 mL","<",2,"CFU/100 mL","<",2,"CFU/100 mL",
"201811COLISBOO.csv","2019JAN04135240","1811058919","I32",  32.59467,-117.13800,"20181105",1153,2,"m","<",2,"CFU/100 mL","<",2,"CFU/100 mL","<",2,"CFU/100 mL",
"201811COLISBOO.csv","2019JAN04135240","1811058920","I32",  32.59467,-117.13800,"20181105",1153,6,"m","<",2,"CFU/100 mL","<",2,"CFU/100 mL","<",2,"CFU/100 mL",
"201811COLISBOO.csv","2019JAN04135240","1811058921","I32",  32.59467,-117.13800,"20181105",1153,9,"m","e",4,"CFU/100 mL","<",2,"CFU/100 mL","<",2,"CFU/100 mL",
"201811COLISBOO.csv","2019JAN04135240","1811058922","I39",  32.57233,-117.16750,"20181105",1030,2,"m","<",2,"CFU/100 mL","<",2,"CFU/100 mL","<",2,"CFU/100 mL",
"201811COLISBOO.csv","2019JAN04135240","1811058923","I39",  32.57233,-117.16750,"20181105",1030,12,"m","<",2,"CFU/100 mL","<",2,"CFU/100 mL","<",2,"CFU/100 mL",
"201811COLISBOO.csv","2019JAN04135240","1811058924","I39",  32.57233,-117.16750,"20181105",1030,18,"m","<",2,"CFU/100 mL","<",2,"CFU/100 mL","<",2,"CFU/100 mL",
"201811COLISBOO.csv","2019JAN04135240","1811058925","I40",  32.55383,-117.13617,"20181105",1109,2,"m","<",2,"CFU/100 mL","<",2,"CFU/100 mL","<",2,"CFU/100 mL",
"201811COLISBOO.csv","2019JAN04135240","1811058926","I40",  32.55383,-117.13617,"20181105",1109,6,"m","<",2,"CFU/100 mL","<",2,"CFU/100 mL","<",2,"CFU/100 mL",
"201811COLISBOO.csv","2019JAN04135240","1811058927","I40",  32.55383,-117.13617,"20181105",1109,9,"m","<",2,"CFU/100 mL","<",2,"CFU/100 mL","e",2,"CFU/100 mL",
"201811COLISBOO.csv","2019JAN04135240","1811068820","I10",  32.51667,-117.15600,"20181106",1110,2,"m","<",2,"CFU/100 mL","<",2,"CFU/100 mL","<",2,"CFU/100 mL",
"201811COLISBOO.csv","2019JAN04135240","1811068821","I10",  32.51667,-117.15600,"20181106",1110,12,"m","e",28,"CFU/100 mL","<",2,"CFU/100 mL","<",2,"CFU/100 mL",
"201811COLISBOO.csv","2019JAN04135240","1811068822","I10",  32.51667,-117.15600,"20181106",1110,18,"m","e",14,"CFU/100 mL","<",2,"CFU/100 mL","<",2,"CFU/100 mL",
"201811COLISBOO.csv","2019JAN04135240","1811068823","I3",  32.46700,-117.16800,"20181106",952,2,"m","<",2,"CFU/100 mL","<",2,"CFU/100 mL","<",2,"CFU/100 mL",
"201811COLISBOO.csv","2019JAN04135240","1811068824","I3",  32.46700,-117.16800,"20181106",952,18,"m","<",2,"CFU/100 mL","<",2,"CFU/100 mL","<",2,"CFU/100 mL",
"201811COLISBOO.csv","2019JAN04135240","1811068825","I3",  32.46700,-117.16800,"20181106",952,27,"m","<",2,"CFU/100 mL","<",2,"CFU/100 mL","<",2,"CFU/100 mL",
"201811COLISBOO.csv","2019JAN04135240","1811068826","I5",  32.47167,-117.13000,"20181106",1015,2,"m","e",36,"CFU/100 mL","<",2,"CFU/100 mL","",64,"CFU/100 mL",
"201811COLISBOO.csv","2019JAN04135240","1811068827","I5",  32.47167,-117.13000,"20181106",1015,6,"m","",90,"CFU/100 mL","e",2,"CFU/100 mL","e",12,"CFU/100 mL",
"201811COLISBOO.csv","2019JAN04135240","1811068828","I5",  32.47167,-117.13000,"20181106",1015,11,"m","e",12,"CFU/100 mL","e",2,"CFU/100 mL","e",6,"CFU/100 mL",
"201811COLISBOO.csv","2019JAN04135240","1811068829","I7",  32.51667,-117.25300,"20181106",836,2,"m","<",2,"CFU/100 mL","<",2,"CFU/100 mL","<",2,"CFU/100 mL",
"201811COLISBOO.csv","2019JAN04135240","1811068830","I7",  32.51667,-117.25300,"20181106",836,18,"m","<",2,"CFU/100 mL","<",2,"CFU/100 mL","<",2,"CFU/100 mL",
"201811COLISBOO.csv","2019JAN04135240","1811068831","I7",  32.51667,-117.25300,"20181106",836,52,"m","<",2,"CFU/100 mL","<",2,"CFU/100 mL","<",2,"CFU/100 mL",
"201811COLISBOO.csv","2019JAN04135240","1811068832","I8",  32.51667,-117.20200,"20181106",1145,2,"m","<",2,"CFU/100 mL","<",2,"CFU/100 mL","<",2,"CFU/100 mL",
"201811COLISBOO.csv","2019JAN04135240","1811068833","I8",  32.51667,-117.20200,"20181106",1145,18,"m","<",2,"CFU/100 mL","<",2,"CFU/100 mL","<",2,"CFU/100 mL",
"201811COLISBOO.csv","2019JAN04135240","1811068834","I8",  32.51667,-117.20200,"20181106",1145,37,"m","<",2,"CFU/100 mL","<",2,"CFU/100 mL","<",2,"CFU/100 mL",
"201811COLISBOO.csv","2019JAN04135240","1811068835","I9",  32.51167,-117.17900,"20181106",1129,2,"m","e",2,"CFU/100 mL","<",2,"CFU/100 mL","<",2,"CFU/100 mL",
"201811COLISBOO.csv","2019JAN04135240","1811068836","I9",  32.51167,-117.17900,"20181106",1129,18,"m","<",2,"CFU/100 mL","<",2,"CFU/100 mL","<",2,"CFU/100 mL",
"201811COLISBOO.csv","2019JAN04135240","1811068837","I9",  32.51167,-117.17900,"20181106",1129,27,"m","<",2,"CFU/100 mL","<",2,"CFU/100 mL","<",2,"CFU/100 mL",
"201811COLISBOO.csv","2019JAN04135240","1811068880","I11",  32.51333,-117.13700,"20181106",1052,2,"m","e",16,"CFU/100 mL","<",2,"CFU/100 mL","e",16,"CFU/100 mL",
"201811COLISBOO.csv","2019JAN04135240","1811068881","I11",  32.51333,-117.13700,"20181106",1052,6,"m","e",140,"CFU/100 mL","e",6,"CFU/100 mL","",60,"CFU/100 mL",
"201811COLISBOO.csv","2019JAN04135240","1811068882","I11",  32.51333,-117.13700,"20181106",1052,11,"m","",1100,"CFU/100 mL","",72,"CFU/100 mL","e",80,"CFU/100 mL",
"201811COLISBOO.csv","2019JAN04135240","1811068971","S4",  32.53530,-117.12500,"20181106",828,,"m","<",200,"CFU/100 mL","e",18,"CFU/100 mL","",62,"CFU/100 mL",
"201811COLISBOO.csv","2019JAN04135240","1811068972","S10",  32.54330,-117.12500,"20181106",836,,"m","e",60,"CFU/100 mL","",62,"CFU/100 mL","e",12,"CFU/100 mL",
"201811COLISBOO.csv","2019JAN04135240","1811068973","S5",  32.55780,-117.13100,"20181106",951,,"m","<",20,"CFU/100 mL","e",4,"CFU/100 mL","e",2,"CFU/100 mL",
"201811COLISBOO.csv","2019JAN04135240","1811068974","S11",  32.56130,-117.13200,"20181106",958,,"m","<",20,"CFU/100 mL","<",2,"CFU/100 mL","e",2,"CFU/100 mL",
"201811COLISBOO.csv","2019JAN04135240","1811068975","S6",  32.56630,-117.13300,"20181106",1008,,"m","<",20,"CFU/100 mL","<",2,"CFU/100 mL","e",4,"CFU/100 mL",
"201811COLISBOO.csv","2019JAN04135240","1811068976","S12",  32.58570,-117.13300,"20181106",1021,,"m","<",2,"CFU/100 mL","e",20,"CFU/100 mL","<",2,"CFU/100 mL",
"201811COLISBOO.csv","2019JAN04135240","1811068977","S8",  32.63680,-117.14400,"20181106",1139,,"m","<",20,"CFU/100 mL","<",2,"CFU/100 mL","<",2,"CFU/100 mL",
"201811COLISBOO.csv","2019JAN04135240","1811068978","S9",  32.67700,-117.17800,"20181106",1224,,"m","<",20,"CFU/100 mL","<",2,"CFU/100 mL","<",2,"CFU/100 mL",
"201811COLISBOO.csv","2019JAN04135240","1811069040","S0",  32.41913,-117.09728,"20181106",1145,,"m","e",6,"CFU/100 mL","<",2,"CFU/100 mL","e",8,"CFU/100 mL",
"201811COLISBOO.csv","2019JAN04135240","1811069041","S2",  32.49870,-117.12300,"20181106",1300,,"m","",54,"CFU/100 mL","e",4,"CFU/100 mL","e",4,"CFU/100 mL",
"201811COLISBOO.csv","2019JAN04135240","1811069042","S3",  32.52570,-117.12400,"20181106",1230,,"m","e",20,"CFU/100 mL","<",2,"CFU/100 mL","e",2,"CFU/100 mL",
"201811COLISBOO.csv","2019JAN04135240","1811078838","I12",  32.53283,-117.18300,"20181107",1108,2,"m","<",2,"CFU/100 mL","<",2,"CFU/100 mL","<",2,"CFU/100 mL",
"201811COLISBOO.csv","2019JAN04135240","1811078839","I12",  32.53283,-117.18300,"20181107",1108,18,"m","<",2,"CFU/100 mL","<",2,"CFU/100 mL","<",2,"CFU/100 mL",
"201811COLISBOO.csv","2019JAN04135240","1811078840","I12",  32.53283,-117.18300,"20181107",1108,27,"m","<",2,"CFU/100 mL","<",2,"CFU/100 mL","<",2,"CFU/100 mL",
"201811COLISBOO.csv","2019JAN04135240","1811078841","I13",  32.53750,-117.21200,"20181107",1134,2,"m","<",2,"CFU/100 mL","<",2,"CFU/100 mL","<",2,"CFU/100 mL",
"201811COLISBOO.csv","2019JAN04135240","1811078842","I13",  32.53750,-117.21200,"20181107",1134,18,"m","<",2,"CFU/100 mL","<",2,"CFU/100 mL","<",2,"CFU/100 mL",
"201811COLISBOO.csv","2019JAN04135240","1811078843","I13",  32.53750,-117.21200,"20181107",1134,37,"m","<",2,"CFU/100 mL","<",2,"CFU/100 mL","<",2,"CFU/100 mL",
"201811COLISBOO.csv","2019JAN04135240","1811078844","I14",  32.54300,-117.18400,"20181107",1151,2,"m","<",2,"CFU/100 mL","<",2,"CFU/100 mL","<",2,"CFU/100 mL",
"201811COLISBOO.csv","2019JAN04135240","1811078845","I14",  32.54300,-117.18400,"20181107",1151,18,"m","<",2,"CFU/100 mL","<",2,"CFU/100 mL","<",2,"CFU/100 mL",
"201811COLISBOO.csv","2019JAN04135240","1811078846","I14",  32.54300,-117.18400,"20181107",1151,27,"m","<",2,"CFU/100 mL","<",2,"CFU/100 mL","<",2,"CFU/100 mL",
"201811COLISBOO.csv","2019JAN04135240","1811078847","I16",  32.53783,-117.18300,"20181107",1100,2,"m","<",2,"CFU/100 mL","<",2,"CFU/100 mL","<",2,"CFU/100 mL",
"201811COLISBOO.csv","2019JAN04135240","1811078848","I16",  32.53783,-117.18300,"20181107",1100,18,"m","e",20,"CFU/100 mL","e",2,"CFU/100 mL","<",2,"CFU/100 mL",
"201811COLISBOO.csv","2019JAN04135240","1811078849","I16",  32.53783,-117.18300,"20181107",1100,27,"m","e",6,"CFU/100 mL","<",2,"CFU/100 mL","e",4,"CFU/100 mL",
"201811COLISBOO.csv","2019JAN04135240","1811078850","I18",  32.53617,-117.16100,"20181107",1039,2,"m","<",2,"CFU/100 mL","<",2,"CFU/100 mL","<",2,"CFU/100 mL",
"201811COLISBOO.csv","2019JAN04135240","1811078851","I18",  32.53617,-117.16100,"20181107",1039,12,"m","<",2,"CFU/100 mL","<",2,"CFU/100 mL","<",2,"CFU/100 mL",
"201811COLISBOO.csv","2019JAN04135240","1811078852","I18",  32.53617,-117.16100,"20181107",1039,18,"m","<",2,"CFU/100 mL","<",2,"CFU/100 mL","<",2,"CFU/100 mL",
"201811COLISBOO.csv","2019JAN04135240","1811078853","I20",  32.55700,-117.25700,"20181107",904,2,"m","<",2,"CFU/100 mL","<",2,"CFU/100 mL","<",2,"CFU/100 mL",
"201811COLISBOO.csv","2019JAN04135240","1811078854","I20",  32.55700,-117.25700,"20181107",904,18,"m","<",2,"CFU/100 mL","<",2,"CFU/100 mL","<",2,"CFU/100 mL",
"201811COLISBOO.csv","2019JAN04135240","1811078855","I20",  32.55700,-117.25700,"20181107",904,55,"m","<",2,"CFU/100 mL","<",2,"CFU/100 mL","<",2,"CFU/100 mL",
"201811COLISBOO.csv","2019JAN04135240","1811078856","I21",  32.56067,-117.22700,"20181107",935,2,"m","<",2,"CFU/100 mL","<",2,"CFU/100 mL","<",2,"CFU/100 mL",
"201811COLISBOO.csv","2019JAN04135240","1811078857","I21",  32.56067,-117.22700,"20181107",935,18,"m","<",2,"CFU/100 mL","e",2,"CFU/100 mL","<",2,"CFU/100 mL",
"201811COLISBOO.csv","2019JAN04135240","1811078858","I21",  32.56067,-117.22700,"20181107",935,37,"m","<",2,"CFU/100 mL","<",2,"CFU/100 mL","<",2,"CFU/100 mL",
"201811COLISBOO.csv","2019JAN04135240","1811078859","I22",  32.55333,-117.18500,"20181107",1010,2,"m","<",2,"CFU/100 mL","<",2,"CFU/100 mL","<",2,"CFU/100 mL",
"201811COLISBOO.csv","2019JAN04135240","1811078860","I22",  32.55333,-117.18500,"20181107",1010,18,"m","<",2,"CFU/100 mL","<",2,"CFU/100 mL","<",2,"CFU/100 mL",
"201811COLISBOO.csv","2019JAN04135240","1811078861","I22",  32.55333,-117.18500,"20181107",1010,27,"m","<",2,"CFU/100 mL","<",2,"CFU/100 mL","<",2,"CFU/100 mL",
"201811COLISBOO.csv","2019JAN04135240","1811078862","I23",  32.55083,-117.16500,"20181107",1025,2,"m","<",2,"CFU/100 mL","<",2,"CFU/100 mL","<",2,"CFU/100 mL",
"201811COLISBOO.csv","2019JAN04135240","1811078863","I23",  32.55083,-117.16500,"20181107",1025,12,"m","<",2,"CFU/100 mL","e",2,"CFU/100 mL","<",2,"CFU/100 mL",
"201811COLISBOO.csv","2019JAN04135240","1811078864","I23",  32.55083,-117.16500,"20181107",1025,18,"m","e",2,"CFU/100 mL","<",2,"CFU/100 mL","<",2,"CFU/100 mL",
"201811COLISBOO.csv","2019JAN04135240","1811088865","I30",  32.59533,-117.19700,"20181108",,2,"m","<",2,"CFU/100 mL","<",2,"CFU/100 mL","<",2,"CFU/100 mL",
"201811COLISBOO.csv","2019JAN04135240","1811088866","I30",  32.59533,-117.19700,"20181108",,18,"m","<",2,"CFU/100 mL","<",2,"CFU/100 mL","<",2,"CFU/100 mL",
"201811COLISBOO.csv","2019JAN04135240","1811088867","I30",  32.59533,-117.19700,"20181108",,27,"m","<",4,"CFU/100 mL","<",4,"CFU/100 mL","<",4,"CFU/100 mL",
"201811COLISBOO.csv","2019JAN04135240","1811088868","I33",  32.62383,-117.23700,"20181108",,2,"m","<",2,"CFU/100 mL","<",2,"CFU/100 mL","<",2,"CFU/100 mL",
"201811COLISBOO.csv","2019JAN04135240","1811088869","I33",  32.62383,-117.23700,"20181108",,18,"m","<",2,"CFU/100 mL","<",2,"CFU/100 mL","<",2,"CFU/100 mL",
"201811COLISBOO.csv","2019JAN04135240","1811088870","I33",  32.62383,-117.23700,"20181108",,27,"m","<",2,"CFU/100 mL","<",2,"CFU/100 mL","<",2,"CFU/100 mL",
"201811COLISBOO.csv","2019JAN04135240","1811088871","I36",  32.63917,-117.15400,"20181108",,2,"m","<",2,"CFU/100 mL","<",2,"CFU/100 mL","<",2,"CFU/100 mL",
"201811COLISBOO.csv","2019JAN04135240","1811088872","I36",  32.63917,-117.15400,"20181108",,6,"m","<",2,"CFU/100 mL","<",2,"CFU/100 mL","<",2,"CFU/100 mL",
"201811COLISBOO.csv","2019JAN04135240","1811088873","I36",  32.63917,-117.15400,"20181108",,11,"m","<",4,"CFU/100 mL","e",4,"CFU/100 mL","<",4,"CFU/100 mL",
"201811COLISBOO.csv","2019JAN04135240","1811088874","I37",  32.64800,-117.21633,"20181108",,2,"m","e",2,"CFU/100 mL","<",2,"CFU/100 mL","<",2,"CFU/100 mL",
"201811COLISBOO.csv","2019JAN04135240","1811088875","I37",  32.64800,-117.21633,"20181108",,6,"m","<",2,"CFU/100 mL","<",2,"CFU/100 mL","<",2,"CFU/100 mL",
"201811COLISBOO.csv","2019JAN04135240","1811088876","I37",  32.64800,-117.21633,"20181108",,11,"m","<",2,"CFU/100 mL","<",2,"CFU/100 mL","<",2,"CFU/100 mL",
"201811COLISBOO.csv","2019JAN04135240","1811088877","I38",  32.66883,-117.18667,"20181108",,2,"m","<",2,"CFU/100 mL","<",2,"CFU/100 mL","<",2,"CFU/100 mL",
"201811COLISBOO.csv","2019JAN04135240","1811088878","I38",  32.66883,-117.18667,"20181108",,6,"m","<",2,"CFU/100 mL","<",2,"CFU/100 mL","<",2,"CFU/100 mL",
"201811COLISBOO.csv","2019JAN04135240","1811088879","I38",  32.66883,-117.18667,"20181108",,11,"m","<",2,"CFU/100 mL","<",2,"CFU/100 mL","e",2,"CFU/100 mL",
"201811COLISBOO.csv","2019JAN04135240","1811139070","I19",  32.53633,-117.12900,"20181114",1040,2,"m","<",2,"CFU/100 mL","<",2,"CFU/100 mL","<",2,"CFU/100 mL",
"201811COLISBOO.csv","2019JAN04135240","1811139071","I19",  32.53633,-117.12900,"20181114",1040,6,"m","<",2,"CFU/100 mL","<",2,"CFU/100 mL","e",2,"CFU/100 mL",
"201811COLISBOO.csv","2019JAN04135240","1811139072","I19",  32.53633,-117.12900,"20181114",1040,11,"m","<",2,"CFU/100 mL","e",2,"CFU/100 mL","<",2,"CFU/100 mL",
"201811COLISBOO.csv","2019JAN04135240","1811139073","I24",  32.55667,-117.14500,"20181114",1107,2,"m","<",2,"CFU/100 mL","<",2,"CFU/100 mL","<",2,"CFU/100 mL",
"201811COLISBOO.csv","2019JAN04135240","1811139074","I24",  32.55667,-117.14500,"20181114",1107,6,"m","<",2,"CFU/100 mL","<",2,"CFU/100 mL","<",2,"CFU/100 mL",
"201811COLISBOO.csv","2019JAN04135240","1811139075","I24",  32.55667,-117.14500,"20181114",1107,11,"m","<",2,"CFU/100 mL","<",2,"CFU/100 mL","<",2,"CFU/100 mL",
"201811COLISBOO.csv","2019JAN04135240","1811139076","I25",  32.56117,-117.14800,"20181114",1116,2,"m","<",2,"CFU/100 mL","<",2,"CFU/100 mL","<",2,"CFU/100 mL",
"201811COLISBOO.csv","2019JAN04135240","1811139077","I25",  32.56117,-117.14800,"20181114",1116,6,"m","<",2,"CFU/100 mL","<",2,"CFU/100 mL","<",2,"CFU/100 mL",
"201811COLISBOO.csv","2019JAN04135240","1811139078","I25",  32.56117,-117.14800,"20181114",1116,9,"m","<",2,"CFU/100 mL","<",2,"CFU/100 mL","<",2,"CFU/100 mL",
"201811COLISBOO.csv","2019JAN04135240","1811139079","I26",  32.57450,-117.14700,"20181114",1127,2,"m","<",2,"CFU/100 mL","<",2,"CFU/100 mL","<",2,"CFU/100 mL",
"201811COLISBOO.csv","2019JAN04135240","1811139080","I26",  32.57450,-117.14700,"20181114",1127,6,"m","<",2,"CFU/100 mL","<",2,"CFU/100 mL","<",2,"CFU/100 mL",
"201811COLISBOO.csv","2019JAN04135240","1811139081","I26",  32.57450,-117.14700,"20181114",1127,9,"m","<",2,"CFU/100 mL","<",2,"CFU/100 mL","<",2,"CFU/100 mL",
"201811COLISBOO.csv","2019JAN04135240","1811139082","I32",  32.59467,-117.13800,"20181114",1140,2,"m","<",2,"CFU/100 mL","<",2,"CFU/100 mL","<",2,"CFU/100 mL",
"201811COLISBOO.csv","2019JAN04135240","1811139083","I32",  32.59467,-117.13800,"20181114",1140,6,"m","<",2,"CFU/100 mL","<",2,"CFU/100 mL","<",2,"CFU/100 mL",
"201811COLISBOO.csv","2019JAN04135240","1811139084","I32",  32.59467,-117.13800,"20181114",1140,9,"m","<",2,"CFU/100 mL","<",2,"CFU/100 mL","<",2,"CFU/100 mL",
"201811COLISBOO.csv","2019JAN04135240","1811139085","I39",  32.57233,-117.16750,"20181114",1020,2,"m","<",2,"CFU/100 mL","<",2,"CFU/100 mL","<",2,"CFU/100 mL",
"201811COLISBOO.csv","2019JAN04135240","1811139086","I39",  32.57233,-117.16750,"20181114",1020,12,"m","e",2,"CFU/100 mL","<",2,"CFU/100 mL","<",2,"CFU/100 mL",
"201811COLISBOO.csv","2019JAN04135240","1811139087","I39",  32.57233,-117.16750,"20181114",1020,18,"m","<",2,"CFU/100 mL","<",2,"CFU/100 mL","<",2,"CFU/100 mL",
"201811COLISBOO.csv","2019JAN04135240","1811139088","I40",  32.55383,-117.13617,"20181114",1057,2,"m","<",2,"CFU/100 mL","<",2,"CFU/100 mL","<",2,"CFU/100 mL",
"201811COLISBOO.csv","2019JAN04135240","1811139089","I40",  32.55383,-117.13617,"20181114",1057,6,"m","<",2,"CFU/100 mL","<",2,"CFU/100 mL","<",2,"CFU/100 mL",
"201811COLISBOO.csv","2019JAN04135240","1811139090","I40",  32.55383,-117.13617,"20181114",1057,9,"m","<",2,"CFU/100 mL","<",2,"CFU/100 mL","<",2,"CFU/100 mL",
"201811COLISBOO.csv","2019JAN04135240","1811139385","S10",  32.54330,-117.12500,"20181113",741,,"m","e",100,"CFU/100 mL","e",20,"CFU/100 mL","e",14,"CFU/100 mL",
"201811COLISBOO.csv","2019JAN04135240","1811139386","S4",  32.53530,-117.12500,"20181113",746,,"m","e",6,"CFU/100 mL","e",4,"CFU/100 mL","e",12,"CFU/100 mL",
"201811COLISBOO.csv","2019JAN04135240","1811139387","S5",  32.55780,-117.13100,"20181113",852,,"m","<",2,"CFU/100 mL","<",2,"CFU/100 mL","<",2,"CFU/100 mL",
"201811COLISBOO.csv","2019JAN04135240","1811139388","S11",  32.56130,-117.13200,"20181113",858,,"m","e",4,"CFU/100 mL","e",2,"CFU/100 mL","<",2,"CFU/100 mL",
"201811COLISBOO.csv","2019JAN04135240","1811139389","S6",  32.56630,-117.13300,"20181113",903,,"m","<",2,"CFU/100 mL","<",2,"CFU/100 mL","e",4,"CFU/100 mL",
"201811COLISBOO.csv","2019JAN04135240","1811139390","S12",  32.58570,-117.13300,"20181113",911,,"m","<",20,"CFU/100 mL","e",2,"CFU/100 mL","<",2,"CFU/100 mL",
"201811COLISBOO.csv","2019JAN04135240","1811139391","S8",  32.63680,-117.14400,"20181113",1022,,"m","<",2,"CFU/100 mL","e",2,"CFU/100 mL","<",2,"CFU/100 mL",
"201811COLISBOO.csv","2019JAN04135240","1811139392","S9",  32.67700,-117.17800,"20181113",1116,,"m","<",20,"CFU/100 mL","<",2,"CFU/100 mL","e",4,"CFU/100 mL",
"201811COLISBOO.csv","2019JAN04135240","1811139407","S0",  32.41913,-117.09728,"20181113",1045,,"m","",540,"CFU/100 mL","e",14,"CFU/100 mL","e",140,"CFU/100 mL",
"201811COLISBOO.csv","2019JAN04135240","1811139408","S2",  32.49870,-117.12300,"20181113",1155,,"m","<",2,"CFU/100 mL","<",2,"CFU/100 mL","e",8,"CFU/100 mL",
"201811COLISBOO.csv","2019JAN04135240","1811139409","S3",  32.52570,-117.12400,"20181113",1125,,"m","e",6,"CFU/100 mL","<",2,"CFU/100 mL","e",8,"CFU/100 mL",
"201811COLISBOO.csv","2019JAN04135240","1811199260","I19",  32.53633,-117.12900,"20181119",1021,2,"m","<",2,"CFU/100 mL","<",2,"CFU/100 mL","<",2,"CFU/100 mL",
"201811COLISBOO.csv","2019JAN04135240","1811199261","I19",  32.53633,-117.12900,"20181119",1021,6,"m","<",2,"CFU/100 mL","<",2,"CFU/100 mL","<",2,"CFU/100 mL",
"201811COLISBOO.csv","2019JAN04135240","1811199262","I19",  32.53633,-117.12900,"20181119",1021,11,"m","e",2,"CFU/100 mL","e",2,"CFU/100 mL","e",2,"CFU/100 mL",
"201811COLISBOO.csv","2019JAN04135240","1811199263","I24",  32.55667,-117.14500,"20181119",1041,2,"m","<",2,"CFU/100 mL","<",2,"CFU/100 mL","<",2,"CFU/100 mL",
"201811COLISBOO.csv","2019JAN04135240","1811199264","I24",  32.55667,-117.14500,"20181119",1041,6,"m","<",2,"CFU/100 mL","<",2,"CFU/100 mL","<",2,"CFU/100 mL",
"201811COLISBOO.csv","2019JAN04135240","1811199265","I24",  32.55667,-117.14500,"20181119",1041,11,"m","<",2,"CFU/100 mL","<",2,"CFU/100 mL","<",2,"CFU/100 mL",
"201811COLISBOO.csv","2019JAN04135240","1811199266","I25",  32.56117,-117.14800,"20181119",1047,2,"m","<",2,"CFU/100 mL","<",2,"CFU/100 mL","<",2,"CFU/100 mL",
"201811COLISBOO.csv","2019JAN04135240","1811199267","I25",  32.56117,-117.14800,"20181119",1047,6,"m","<",2,"CFU/100 mL","<",2,"CFU/100 mL","<",2,"CFU/100 mL",
"201811COLISBOO.csv","2019JAN04135240","1811199268","I25",  32.56117,-117.14800,"20181119",1047,9,"m","<",2,"CFU/100 mL","<",2,"CFU/100 mL","<",2,"CFU/100 mL",
"201811COLISBOO.csv","2019JAN04135240","1811199269","I26",  32.57450,-117.14700,"20181119",1053,2,"m","<",2,"CFU/100 mL","<",2,"CFU/100 mL","<",2,"CFU/100 mL",
"201811COLISBOO.csv","2019JAN04135240","1811199270","I26",  32.57450,-117.14700,"20181119",1053,6,"m","<",2,"CFU/100 mL","<",2,"CFU/100 mL","<",2,"CFU/100 mL",
"201811COLISBOO.csv","2019JAN04135240","1811199271","I26",  32.57450,-117.14700,"20181119",1053,9,"m","e",2,"CFU/100 mL","<",2,"CFU/100 mL","<",2,"CFU/100 mL",
"201811COLISBOO.csv","2019JAN04135240","1811199272","I32",  32.59467,-117.13800,"20181119",1107,2,"m","<",2,"CFU/100 mL","<",2,"CFU/100 mL","<",2,"CFU/100 mL",
"201811COLISBOO.csv","2019JAN04135240","1811199273","I32",  32.59467,-117.13800,"20181119",1107,6,"m","<",2,"CFU/100 mL","<",2,"CFU/100 mL","<",2,"CFU/100 mL",
"201811COLISBOO.csv","2019JAN04135240","1811199274","I32",  32.59467,-117.13800,"20181119",1107,9,"m","<",2,"CFU/100 mL","<",2,"CFU/100 mL","<",2,"CFU/100 mL",
"201811COLISBOO.csv","2019JAN04135240","1811199275","I39",  32.57233,-117.16750,"20181119",1000,2,"m","<",2,"CFU/100 mL","<",2,"CFU/100 mL","<",2,"CFU/100 mL",
"201811COLISBOO.csv","2019JAN04135240","1811199276","I39",  32.57233,-117.16750,"20181119",1000,12,"m","<",2,"CFU/100 mL","<",2,"CFU/100 mL","<",2,"CFU/100 mL",
"201811COLISBOO.csv","2019JAN04135240","1811199277","I39",  32.57233,-117.16750,"20181119",1000,18,"m","<",2,"CFU/100 mL","<",2,"CFU/100 mL","<",2,"CFU/100 mL",
"201811COLISBOO.csv","2019JAN04135240","1811199278","I40",  32.55383,-117.13617,"20181119",1031,2,"m","<",2,"CFU/100 mL","<",2,"CFU/100 mL","<",2,"CFU/100 mL",
"201811COLISBOO.csv","2019JAN04135240","1811199279","I40",  32.55383,-117.13617,"20181119",1031,6,"m","<",2,"CFU/100 mL","<",2,"CFU/100 mL","<",2,"CFU/100 mL",
"201811COLISBOO.csv","2019JAN04135240","1811199280","I40",  32.55383,-117.13617,"20181119",1031,9,"m","<",2,"CFU/100 mL","<",2,"CFU/100 mL","<",2,"CFU/100 mL",